User: anonymous   Login
Location: Columbia
(38.9520°N, 92.3340°W)
Time: 15:23:10
(UTC-05:00)
Language:

CZ-2C R/B - Orbit

View from above orbital plane
View from above orbital plane
View from above satellite
View from above satellite

Ground track
Ground track

The orbit data is extracted from the following two-line orbital elements,

1 28480U 04046B   17267.91365366 +.00000032 +00000-0 +28417-4 0  9999
2 28480 098.1958 357.6818 0140811 290.4457 181.3921 14.25648664668425
Epoch (UTC): 24 September 2017 21:55:39
Eccentricity: 0.0140811
inclination: 98.1958°
perigee height: 705 km
apogee height: 907 km
right ascension of ascending node: 357.6818°
argument of perigee: 290.4457°
revolutions per day: 14.25648664
mean anomaly at epoch: 181.3921°
orbit number at epoch: 66842

The dashed part of the orbit path shows where the satellite is in the earth's shadow,  

DLR